Content
SEND FEEDBACK

Daily
Averages
Monthly
Summary
Australia

CRESSY, TASMANIA


Home > Oceania > Australia > Tasmania
Elevation: 150 meters     Latitude: 41 43S     Longitude: 147 04E

WEATHER
 
SELECT A DAY
Number of Records: 177,552;   Date Range: 10/22/03 - 4/18/14
 
SHARE

PRINT THIS DATA

[ ← Previous Day ]
WEATHER ALMANAC - 31 JANUARY, 2013
[ Next Day → ]
[ °F ]   °C
Weather ElementAverageHighLow
Temperature15.1 °C17 °C (5:30 pm)12 °C (9:00 pm)
Dewpoint12.7 °C14 °C (4:00 am)10 °C (11:30 pm)
Humidity86.5 %94 % (4:00 am)72 % (6:00 pm)
Barometer1008.1 hPa1011.2 hPa (12:30 am)1005.1 hPa (7:00 pm)
Wind Speed18.8 km/h31.5 km/h (2:30 am)
Weather ElementAverage
Visibility8.9 km
Wind DirectionNNW (321.2 °)

Weather ElementTotal
Precipitation---
Heating Degree Days3.8 (Base 18.3)
Growing Degree Days4.5 (Base 10)
Averaged from 34 records on 31 January, 2013
WEATHER CONDITIONS BREAKOUT
WIND DIRECTION BREAKOUT
WEATHER BY HOUR - 31 JANUARY, 2013
[ °F ]   °C
Local TimeTemperatureDewpointHumidityBarometerVisibilityWind DirectionWind SpeedGust SpeedPrecipitationEventsConditions
12:30 AM16 °C13 °C82 %1011.2 hPa10 kmNNW (340°)24.1 km/hOvercast
2:00 AM16 °C13 °C82 %1010.2 hPa10 kmNorth (350°)29.6 km/hOvercast
2:30 AM16 °C13 °C82 %1010.2 hPa10 kmNorth (350°)31.5 km/hOvercast
3:00 AM16 °C13 °C82 %1010.2 hPa10 kmNorth (350°)29.6 km/hOvercast
4:00 AM15 °C14 °C94 %1009.1 hPa6 kmNorth (350°)25.9 km/hRainLight Rain Showers
4:30 AM15 °C14 °C94 %1009.1 hPa6 kmNorth (350°)27.8 km/hRainLight Rain Showers
5:00 AM15 °C14 °C94 %1008.1 hPa6 kmNorth (350°)25.9 km/hRainLight Rain
6:00 AM15 °C13 °C88 %1008.1 hPa5 kmNorth (350°)31.5 km/hHeavy Drizzle
6:30 AM15 °C14 °C94 %1008.1 hPa9 kmNorth (350°)27.8 km/hDrizzle
7:30 AM15 °C14 °C94 %1009.1 hPa5 kmNorth (350°)29.6 km/hDrizzle
8:00 AM15 °C14 °C94 %1009.1 hPaNW (320°)22.2 km/hHeavy Drizzle
8:30 AM15 °C13 °C88 %1009.1 hPa10 kmNW (310°)18.5 km/hOvercast
9:00 AM14 °C12 °C88 %1010.2 hPa6.9 kmNNW (340°)18.5 km/hOvercast
10:30 AM14 °C13 °C94 %1010.2 hPa6 kmNorth (350°)22.2 km/hRainLight Rain
11:30 AM14 °C12 °C88 %1009.1 hPa10 kmNorth (360°)16.7 km/hRainLight Rain
12:00 PM14 °C12 °C88 %1009.1 hPa10 kmNorth (360°)13 km/hDrizzle
12:30 PM14 °C13 °C94 %1009.1 hPa10 kmNorth (350°)14.8 km/hOvercast
1:00 PM14 °C13 °C94 %1009.1 hPa8 kmNorth (360°)11.1 km/hRainLight Rain Showers
1:30 PM14 °C12 °C88 %1008.1 hPa10 kmNorth (350°)11.1 km/hRainLight Rain Showers
2:00 PM15 °C13 °C88 %1008.1 hPa10 kmNorth (350°)14.8 km/hRainLight Rain Showers
2:30 PM15 °C13 °C88 %1008.1 hPa10 kmNorth (360°)18.5 km/hRainLight Rain Showers
3:30 PM16 °C13 °C82 %1007.1 hPa10 kmNorth (350°)16.7 km/hRainLight Rain Showers
4:00 PM16 °C13 °C82 %1007.1 hPa10 kmNorth (360°)18.5 km/hOvercast
4:30 PM16 °C12 °C77 %1006.1 hPa10 kmNorth (360°)16.7 km/hOvercast
5:00 PM16 °C12 °C77 %1006.1 hPa10 kmNorth (350°)18.5 km/hOvercast
5:30 PM17 °C13 °C77 %1006.1 hPa10 kmNorth (360°)14.8 km/hOvercast
6:00 PM17 °C12 °C72 %1006.1 hPa10 kmNNW (330°)14.8 km/hOvercast
6:30 PM16 °C12 °C77 %1006.1 hPa10 kmNNW (340°)14.8 km/hOvercast
7:00 PM17 °C13 °C77 %1005.1 hPa10 kmNW (320°)7.4 km/hRainLight Rain Showers
7:30 PM16 °C12 °C77 %1005.1 hPa10 kmWest (270°)9.3 km/hOvercast
8:00 PM15 °C13 °C88 %1006.1 hPa9 kmWSW (240°)11.1 km/hRainRain
8:30 PM13 °C12 °C94 %1006.1 hPa10 kmSouth (170°)18.5 km/hRainRain
9:00 PM12 °C11 °C94 %1007.1 hPa6.9 kmSouth (170°)13 km/hRainHeavy Rain
11:30 PM12 °C10 °C88 %1009.1 hPa10 kmCalmRainLight Rain
Hourly data recorded from YMLT, located 22.74 kilometers away from Cressy, Tasmania







STORIES FROM OUR PARTNERS